FW0368 Weather Reports


Display with metric or nautical units.
time (UTC)temp
F
wind
direction
speed
MPH
gust
MPH
rain 1hr
in
rain 24hr
in
rain mn
in
humidity
%
barometer
mb
20210301161549 83 127 2.0 8.0 0.00 0.00 0.00 69 1012.0
20210301160110 83 146 3.0 8.0 0.00 0.00 0.00 67 1012.0
20210301154535 83 133 2.0 8.0 0.00 0.00 0.00 66 1012.0
20210301153046 84 141 4.0 10.0 0.00 0.00 0.00 65 1012.2
20210301151544 84 117 3.0 8.0 0.00 0.00 0.00 64 1012.4
20210301150023 84 134 1.0 7.0 0.00 0.00 0.00 63 1012.3
20210301144613 85 129 2.0 8.0 0.00 0.00 0.00 61 1012.2
20210301143053 85 126 1.0 9.0 0.00 0.00 0.00 60 1012.1
20210301141529 86 153 3.0 7.0 0.00 0.00 0.00 59 1012.0
20210301140046 86 165 2.0 6.0 0.00 0.00 0.00 57 1012.0
20210301134554 86 170 3.0 7.0 0.00 0.00 0.00 58 1011.8
20210301133049 87 176 2.0 5.0 0.00 0.00 0.00 58 1011.6
20210301131650 88 199 3.0 8.0 0.00 0.00 0.00 57 1011.5
20210301130036 88 195 3.0 7.0 0.00 0.00 0.00 58 1011.2
20210301124527 88 188 2.0 6.0 0.00 0.00 0.00 59 1010.9
20210301123028 88 190 4.0 8.0 0.00 0.00 0.00 58 1010.8
20210301121541 89 164 3.0 9.0 0.00 0.00 0.00 60 1010.5
20210301120027 89 188 4.0 8.0 0.00 0.00 0.00 60 1010.4
20210301114538 90 215 2.0 9.0 0.00 0.00 0.00 59 1010.0
20210301113103 91 193 3.0 6.0 0.00 0.00 0.00 57 1009.7
20210301111532 91 187 2.0 6.0 0.00 0.00 0.00 55 1009.6
20210301110034 92 161 2.0 8.0 0.00 0.00 0.00 54 1009.3
20210301104519 92 169 3.0 7.0 0.00 0.00 0.00 53 1009.4
20210301103027 93 154 3.0 7.0 0.00 0.00 0.00 53 1009.3
20210301101517 93 184 3.0 9.0 0.00 0.00 0.00 51 1009.3
20210301100159 94 242 6.0 8.0 0.00 0.00 0.00 51 1009.2
20210301094700 94 169 3.0 7.0 0.00 0.00 0.00 50 1009.2
20210301093216 94 149 3.0 7.0 0.00 0.00 0.00 50 1009.3
20210301091739 94 182 4.0 10.0 0.00 0.00 0.00 50 1009.3
20210301090126 94 173 4.0 10.0 0.00 0.00 0.00 50 1009.4
20210301084638 94 179 2.0 9.0 0.00 0.00 0.00 50 1009.5
20210301083117 94 181 3.0 10.0 0.00 0.00 0.00 51 1009.7
20210301081746 94 165 3.0 8.0 0.00 0.00 0.00 51 1009.7
20210301080312 93 120 4.0 11.0 0.00 0.00 0.00 51 1009.9
20210301074709 93 209 5.0 8.0 0.00 0.00 0.00 49 1010.0
20210301073223 93 148 3.0 8.0 0.00 0.00 0.00 50 1010.2
20210301071751 93 153 6.0 12.0 0.00 0.00 0.00 50 1010.2
20210301070139 93 213 5.0 10.0 0.00 0.00 0.00 50 1010.5
20210301064606 92 178 3.0 11.0 0.00 0.00 0.00 54 1010.9
20210301063242 92 178 5.0 11.0 0.00 0.00 0.00 53 1011.2
20210301061553 92 97 4.0 11.0 0.00 0.00 0.00 53 1011.4
20210301060152 92 159 5.0 10.0 0.00 0.00 0.00 54 1011.7
20210301054602 91 150 5.0 11.0 0.00 0.00 0.00 56 1011.8
20210301053042 90 121 2.0 10.0 0.00 0.00 0.00 58 1012.0
20210301051606 90 104 4.0 11.0 0.00 0.00 0.00 59 1012.4
20210301050118 90 119 5.0 10.0 0.00 0.00 0.00 61 1012.8
20210301044555 89 136 5.0 11.0 0.00 0.00 0.00 61 1013.1
20210301043022 89 166 5.0 12.0 0.00 0.00 0.00 62 1013.3
20210301041549 88 188 5.0 11.0 0.00 0.00 0.00 61 1013.6
20210301040036 88 123 6.0 10.0 0.00 0.00 0.00 63 1013.7
20210301034540 88 168 4.0 9.0 0.00 0.00 0.00 63 1013.7
20210301033021 87 169 6.0 11.0 0.00 0.00 0.00 64 1013.8
20210301031729 86 120 4.0 9.0 0.00 0.00 0.00 66 1013.9
20210301030146 85 134 5.0 8.0 0.00 0.00 0.00 70 1013.6
20210301024706 84 102 3.0 9.0 0.00 0.00 0.00 72 1013.5
20210301023147 83 120 4.0 10.0 0.00 0.00 0.00 74 1013.5
20210301021627 83 157 5.0 11.0 0.00 0.00 0.00 76 1013.3
20210301020112 82 166 4.0 10.0 0.00 0.00 0.00 78 1013.2
20210301014620 81 134 3.0 11.0 0.00 0.00 0.00 81 1013.2
20210301013116 79 110 3.0 10.0 0.00 0.00 0.00 84 1013.0
20210301011641 78 109 2.0 8.0 0.00 0.00 0.00 86 1012.7
20210301010118 77 118 3.0 11.0 0.00 0.00 0.00 90 1012.5
20210301004612 76 65 3.0 6.0 0.00 0.00 0.00 91 1012.3
20210301003029 75 90 2.0 4.0 0.00 0.00 0.00 92 1011.9
20210301001547 74 88 1.0 4.0 0.00 0.00 0.00 92 1011.6
20210301000042 74 93 0.0 0.0 0.00 0.00 0.00 92 1011.2
20210228234544 74 94 0.0 0.0 0.00 0.00 0.00 91 1010.9
20210228233050 74 94 0.0 0.0 0.00 0.00 0.00 91 1010.8
20210228231622 74 94 0.0 0.0 0.00 0.00 0.00 91 1010.6
20210228230032 74 94 0.0 1.0 0.00 0.00 0.00 90 1010.4
20210228224538 75 130 0.0 3.0 0.00 0.00 0.00 89 1010.2
20210228223043 75 132 0.0 0.0 0.00 0.00 0.00 89 1010.0
20210228221524 76 132 0.0 7.0 0.00 0.00 0.00 89 1010.0
20210228220038 76 138 1.0 4.0 0.00 0.00 0.00 89 1010.0
20210228214521 76 140 1.0 4.0 0.00 0.00 0.00 89 1009.8
20210228213024 76 96 0.0 0.0 0.00 0.00 0.00 89 1009.5
20210228211511 76 96 3.0 7.0 0.00 0.00 0.00 88 1009.4
20210228210333 76 99 5.0 8.0 0.00 0.00 0.00 88 1009.4
20210228204616 76 87 5.0 11.0 0.00 0.00 0.00 89 1009.3
20210228203204 77 107 4.0 7.0 0.00 0.00 0.00 88 1009.3
20210228201913 77 103 5.0 10.0 0.00 0.00 0.00 89 1009.3
20210228200109 77 104 3.0 10.0 0.00 0.00 0.00 89 1009.4
20210228194638 77 119 4.0 10.0 0.00 0.00 0.00 90 1009.5
20210228193137 77 115 3.0 9.0 0.00 0.00 0.00 90 1009.5
20210228191632 77 133 3.0 9.0 0.00 0.00 0.00 90 1009.6
20210228190113 77 121 2.0 8.0 0.00 0.00 0.00 89 1009.8
20210228184720 77 140 3.0 7.0 0.00 0.00 0.00 89 1009.9
20210228183129 77 130 3.0 7.0 0.00 0.00 0.00 89 1010.0
20210228181629 77 126 1.0 5.0 0.00 0.00 0.00 88 1010.1
20210228180053 77 116 3.0 4.0 0.00 0.00 0.00 87 1010.2
20210228174549 78 120 2.0 6.0 0.00 0.00 0.00 87 1010.4
20210228173120 78 132 0.0 6.0 0.00 0.00 0.00 86 1010.5
20210228171545 78 139 1.0 7.0 0.00 0.00 0.00 85 1010.6
20210228170054 78 125 3.0 6.0 0.00 0.00 0.00 84 1010.6
20210228164613 79 153 2.0 7.0 0.00 0.00 0.00 83 1010.5